Weather History for KMGY - April, 2013

Change the Weather History Date:

Thursday, April 11, 2013

  Actual Average (KFFO) Record (KFFO)
Temperature  
Mean Temperature 60 °F -  
Max Temperature 64 °F 61 °F 82 °F (2001)
Min Temperature 57 °F 39 °F 30 °F (2012)
Degree Days  
Heating Degree Days 4    
Growing Degree Days 10 (Base 50)    
Moisture  
Dew Point 58 °F    
Average Humidity 91    
Maximum Humidity 100    
Minimum Humidity 75    
Precipitation  
Precipitation 1.02 in - - ()
Sea Level Pressure  
Sea Level Pressure 29.69 in    
Wind  
Wind Speed 8 mph (South)    
Max Wind Speed 18 mph    
Max Gust Speed 25 mph    
Visibility 6 miles    
Events Rain    
Averages and records for this station are not official NWS values.
T = Trace of Precipitation, MM = Missing Value Source: NWS Daily Summary

Daily Weather History Graph

Daily Weather History Graph

Search for Another Location

Airport or City:

Trip Planner

Search our weather history database for the weather conditions in past years. The results will help you decide how hot, cold, wet, or windy it might be!

Date:

Astronomy

Apr. 11, 2013 Rise Set
Actual Time 7:05 AM EDT 8:11 PM EDT
Civil Twilight 6:37 AM EDT 8:38 PM EDT
Nautical Twilight 6:04 AM EDT 9:11 PM EDT
Astronomical Twilight 5:30 AM EDT 9:46 PM EDT
Moon 7:36 AM EDT (4/11) 9:44 PM EDT (4/11)
Length of Visible Light 14h 01m
Length of Day
13h 05m
New Moon, 2% of the Moon is Illuminated
Apr 11
New Moon
Apr 18
First Quarter
Apr 25
Full
May 2
Last Quarter
May 9
New

Hourly Weather History & Observations

Time (EDT) Temp. Dew Point Humidity Pressure Visibility Wind Dir Wind Speed Gust Speed Precip Events Conditions
12:53 AM 62.1 °F 55.9 °F 80% 29.80 in 10.0 mi East 10.4 mph - N/A   Clear
1:53 AM 62.1 °F 55.0 °F 78% 29.78 in 10.0 mi East 12.7 mph - N/A   Clear
2:53 AM 62.1 °F 55.0 °F 78% 29.76 in 10.0 mi ESE 11.5 mph - N/A   Clear
3:53 AM 62.1 °F 55.0 °F 78% 29.73 in 10.0 mi ESE 11.5 mph 20.7 mph N/A   Clear
4:53 AM 62.1 °F 54.0 °F 75% 29.73 in 10.0 mi SE 5.8 mph - N/A   Partly Cloudy
5:53 AM 62.1 °F 55.0 °F 78% 29.77 in 10.0 mi NW 5.8 mph - N/A   Mostly Cloudy
6:53 AM 61.0 °F 55.0 °F 81% 29.78 in 10.0 mi North 8.1 mph - N/A   Unknown
7:53 AM 59.0 °F 57.0 °F 93% 29.80 in 4.0 mi ENE 6.9 mph - 0.09 in Rain Light Rain
8:12 AM 59.0 °F 57.2 °F 94% 29.84 in 1.8 mi Calm Calm - 0.05 in Rain Heavy Rain
8:28 AM 59.0 °F 57.2 °F 94% 29.82 in 3.0 mi Calm Calm - 0.12 in Rain Light Rain
8:53 AM 59.0 °F 57.9 °F 96% 29.79 in 2.5 mi ESE 10.4 mph - 0.15 in Rain Rain
9:04 AM 59.0 °F 57.2 °F 94% 29.80 in 3.0 mi ESE 8.1 mph - 0.02 in Rain Light Rain
9:53 AM 59.0 °F 57.9 °F 96% 29.76 in 10.0 mi South 13.8 mph - 0.07 in Rain Light Rain
10:53 AM 60.1 °F 57.9 °F 93% 29.70 in 10.0 mi SE 18.4 mph 25.3 mph 0.09 in   Mostly Cloudy
11:53 AM 64.0 °F 60.1 °F 87% 29.73 in 10.0 mi South 10.4 mph - N/A   Mostly Cloudy
1:53 PM 64.0 °F 59.0 °F 84% 29.74 in 5.0 mi SW 3.5 mph - 0.01 in Rain Light Rain
2:53 PM 64.0 °F 61.0 °F 90% 29.70 in 10.0 mi ESE 6.9 mph - 0.00 in   Overcast
3:53 PM 64.9 °F 61.0 °F 87% 29.66 in 10.0 mi SSE 4.6 mph - 0.01 in Rain Light Rain
4:53 PM 64.9 °F 60.1 °F 84% 29.64 in 10.0 mi South 8.1 mph - 0.00 in   Overcast
5:53 PM 64.0 °F 57.9 °F 80% 29.61 in 10.0 mi SW 4.6 mph - 0.00 in   Overcast
6:34 PM 62.6 °F 59.0 °F 88% 29.63 in 2.0 mi WSW 9.2 mph - 0.06 in Rain Heavy Rain
6:36 PM 62.6 °F 59.0 °F 88% 29.62 in 1.2 mi West 5.8 mph - 0.09 in Rain Heavy Rain
6:49 PM 60.8 °F 60.8 °F 100% 29.63 in 3.0 mi SW 8.1 mph - 0.13 in Rain Rain
6:53 PM 61.0 °F 60.1 °F 97% 29.62 in 2.5 mi WSW 5.8 mph - 0.14 in Rain Rain
7:01 PM 60.8 °F 60.8 °F 100% 29.63 in 2.0 mi WSW 5.8 mph - 0.02 in Rain Light Rain
7:07 PM 60.8 °F 60.8 °F 100% 29.63 in 1.8 mi WSW 8.1 mph - 0.04 in Rain Rain
7:25 PM 60.8 °F 60.8 °F 100% 29.63 in 1.8 mi WSW 5.8 mph - 0.10 in Rain Rain
7:29 PM 60.8 °F 60.8 °F 100% 29.63 in 1.8 mi WSW 3.5 mph - 0.11 in Rain Rain
7:39 PM 60.8 °F 60.8 °F 100% 29.63 in 2.0 mi WSW 9.2 mph - 0.14 in Rain Rain
7:49 PM 60.8 °F 60.8 °F 100% 29.64 in 2.5 mi SW 10.4 mph - 0.17 in Rain Rain
7:53 PM 60.1 °F 60.1 °F 100% 29.63 in 2.5 mi WSW 9.2 mph - 0.18 in Rain Rain
8:01 PM 60.8 °F 60.8 °F 100% 29.63 in 4.0 mi WSW 8.1 mph - 0.01 in Rain Light Rain
8:53 PM 59.0 °F 57.0 °F 93% 29.63 in 5.0 mi SW 9.2 mph - 0.15 in Rain Rain
9:53 PM 57.9 °F 57.0 °F 97% 29.56 in 10.0 mi SE 6.9 mph - 0.06 in   Overcast
10:53 PM 57.0 °F 57.0 °F 100% 29.56 in 10.0 mi SE 6.9 mph - N/A   Overcast
11:53 PM 57.0 °F 57.0 °F 100% 29.55 in 5.0 mi SE 4.6 mph - 0.07 in Rain Light Rain